Home > Weather > Jacksonville > Past weeks

Flag for USA Weather for the Past 2 Weeks in Jacksonville, North Carolina, USA

Now
70 °F

Sunny.


Feels Like: 68 °F
Forecast: 62 / 77 °F
Wind: 6 mph from South

Location: Jacksonville - New River

Current Time: May 3, 2016 at 8:35:19 PM

Latest Report: May 3, 2016 at 7:56 PM


Visibility: 10 mi

Pressure: 29.76 "Hg

Humidity: 87%

Dew Point: 66 °F

Location of JacksonvilleLocation

Historic Weather in Jacksonville — Graph

°F

Jacksonville Temperature Yesterday

Maximum temperature yesterday: 83 °F (at 1:56 PM)
Minimum temperature yesterday: 68 °F (at 1:56 AM)
Average temperature yesterday: 74 °F

High & Low Weather Summary for the Past Weeks

 TemperatureHumidityPressure
High88 °F (Apr 19, 1:56 PM)97% (Apr 25, 4:56 AM)30.24 "Hg (Apr 25, 4:56 AM)
Low48 °F (Apr 25, 6:56 AM)17% (Apr 19, 1:56 PM)29.76 "Hg (May 3, 6:56 PM)
Average68 °F70%30.02 "Hg
* Reported Apr 18 6:56 PM — May 3 6:56 PM, Jacksonville, Weather by CustomWeather, © 2016

Note: Actual official high and low records may vary slightly from our data, if they occured in-between our weather recording intervals... More about our weather records

Advertising

Jacksonville Weather History for the Previous 24 Hours

Scroll right to see more
 ConditionsComfort  
Time TempWeatherWind HumidityBarometerVisibility
6:56 PM
Tue, May 3
71 °FSunny.8 mph84%29.76 "Hg10 mi
5:56 PM72 °FSunny.8 mph81%29.78 "Hg10 mi
4:56 PM73 °FSunny.12 mph79%29.77 "Hg10 mi
3:56 PM76 °FBroken clouds.10 mph72%29.77 "Hg10 mi
2:56 PM75 °FScattered clouds.12 mph76%29.80 "Hg10 mi
1:56 PM73 °FPassing clouds.10 mph79%29.82 "Hg10 mi
12:56 PM68 °FBroken clouds.10 mph90%29.84 "Hg10 mi
11:56 AM66 °FLight rain. Mostly cloudy.6 mph93%29.87 "Hg8 mi
10:56 AM66 °FLight rain. Overcast.8 mph90%29.88 "Hg8 mi
9:56 AM65 °FHeavy rain. Fog.7 mph91%29.90 "Hg2 mi
8:56 AM65 °FRain. Fog.7 mph94%29.91 "Hg2 mi
7:56 AM65 °FThunderstorms. Fog.3 mph94%29.90 "Hg4 mi
6:56 AM67 °FStrong thunderstorms. Fog.13 mph87%29.89 "Hg1 mi
5:56 AM72 °FPassing clouds.10 mph76%29.84 "Hg10 mi
4:56 AM72 °FPassing clouds.13 mph81%29.86 "Hg10 mi
3:56 AM72 °FPassing clouds.10 mph91%29.86 "Hg10 mi
2:56 AM72 °FPassing clouds.8 mph87%29.88 "Hg10 mi
1:56 AM72 °FClear.7 mph87%29.90 "Hg10 mi
12:56 AM70 °FClear.7 mph93%29.94 "Hg10 mi
11:56 PM
Mon, May 2
70 °FClear.5 mph93%29.97 "Hg10 mi
10:56 PM71 °FOvercast.6 mph90%30.00 "Hg10 mi
9:56 PM73 °FPartly cloudy.7 mph81%29.99 "Hg10 mi
8:56 PM73 °FClear.8 mph84%29.98 "Hg10 mi
Weather by CustomWeather, © 2016

See weather overviewHow to use our weather pages